TRANSIT 5B-2 DEB, 25156

Orbit data source: Space-Track

TRANSIT 5B-2 DEB, 25156 is space debris in LEO originally from a launch on Thu, 05 Dec 1963 UTC launched from the Air Force Western Test Range (AFWTR). Debris objects in space refer to the collection of defunct objects orbiting the Earth. Examples of debris include non-operational satellites, rocket bodies, and fragments generated from explosions, collisions, or faulty payload assembly.

Loading next visibility...
Identifier
25156, 1963-049N
Orbit
LEO
Country
Flag of USUS
Related business
Manufacturer
Unknown
Mission
Spacecraft
Bus & Motor
Unknown
Mass
Unknown
Launch date (UTC)
1963-12-05 (62 years ago)
Launch vehicle
Unknown
Launch site
Air Force Western Test Range (AFWTR)
Object type
Payload
Rocket body
Debris
Shape & HBR
Unknown
Radar Cross Section
Medium (>0.1 m² and <1 m²)

Expand to show TLE details & history
Last TLE update: 20 hours ago

TLE from 20 hours ago
0 TRANSIT 5B-2 DEB
1 25156U 63049N   25242.28844543  .00000768  00000-0  10619-2 0  9994
2 25156  89.9137  74.3715 0042749 153.3817  19.9014 13.56893878359570
Epoch: 2025-08-30T06:55Z
TLE epoch observation values (Epoch: 2025-08-30T06:55:21.685Z)
Latitude
6.47267°
Longitude
171.79652°
Altitude
1,019.523 km
Speed
7.357 km/s
True Right ascension
16h 57m 26s
True Declination
6° 26' 08"
Sunlit
Object was in daylight at epoch
Visualization orbit readout
Latitude
Unknown
Longitude
Unknown
Altitude
Unknown
Speed
Unknown
Apparent Right ascension
Unknown
Apparent Declination
Unknown
Sunlit
N/A
Visualization observer readout
Local Sidereal Time
18:06:07
Azimuth
Unknown
Elevation
Unknown
Doppler factor
Unknown
Orbital elements
Apogee altitude
1,075.771 km
Perigee altitude
1,012.313 km
Semi-major axis
7,422.179 km
Eccentricity
0.00427
Inclination
89.9137°
RAAN
74.3715°
Arg. of periapsis
153.3817°
True anomaly
20.06899°
Mean anomaly
19.9014°
Eccentric anomaly
19.98511°
Mean motion
3.39427 °/min
Orbital period
106.06 mins
BSTAR
0.0010619
Loading maneuver chart data...
Computing Atmospheric mass density...
Loading historical data...
Loading historical data...
Loading historical data...
Loading historical data...
Loading historical data...
Loading historical data...
Loading historical data...

Documentation

Showing up to 5 results
|